TimePDT,TemperatureF,Dew PointF,Humidity,Sea Level PressureIn,VisibilityMPH,Wind Direction,Wind SpeedMPH,Gust SpeedMPH,PrecipitationIn,Events,Conditions,WindDirDegrees,DateUTC
12:56 AM,63.0,59.0,87,29.77,10.0,Calm,Calm,-,0.00,Thunderstorm,Overcast,0,2012-10-11 07:56:00
1:41 AM,62.6,57.2,82,29.91,6.0,Calm,Calm,-,0.06,Rain-Thunderstorm,Heavy Thunderstorms and Rain,0,2012-10-11 08:41:00
1:56 AM,61.9,57.9,87,29.76,10.0,Calm,Calm,-,0.07,Rain-Thunderstorm,Heavy Thunderstorms and Rain,0,2012-10-11 08:56:00
2:09 AM,60.8,59.0,94,29.88,10.0,Calm,Calm,-,0.00,,Scattered Clouds,0,2012-10-11 09:09:00
2:56 AM,59.9,59.9,100,29.74,10.0,Calm,Calm,-,0.00,,Scattered Clouds,0,2012-10-11 09:56:00
3:56 AM,59.9,59.9,100,29.75,10.0,Calm,Calm,-,N/A,,Mostly Cloudy,0,2012-10-11 10:56:00
5:34 AM,60.8,59.0,94,29.86,3.0,Calm,Calm,-,0.07,Rain,Heavy Rain,0,2012-10-11 12:34:00
5:56 AM,61.0,59.0,93,29.75,10.0,South,10.4,-,0.07,,Mostly Cloudy,190,2012-10-11 12:56:00
6:56 AM,59.9,57.9,93,29.75,10.0,South,8.1,-,N/A,,Mostly Cloudy,170,2012-10-11 13:56:00
7:56 AM,61.0,55.9,83,29.77,10.0,SW,9.2,-,0.00,,Mostly Cloudy,220,2012-10-11 14:56:00
8:30 AM,59.0,55.4,88,29.92,4.0,South,9.2,-,0.03,Rain,Heavy Rain,180,2012-10-11 15:30:00
8:35 AM,57.2,55.4,94,29.91,1.8,South,5.8,-,0.06,Rain,Heavy Rain,180,2012-10-11 15:35:00
8:42 AM,57.2,55.4,94,29.91,7.0,Calm,Calm,-,0.06,Rain,Light Rain,0,2012-10-11 15:42:00
8:56 AM,59.0,55.9,90,29.80,10.0,Calm,Calm,-,0.06,,Mostly Cloudy,0,2012-10-11 15:56:00
9:56 AM,59.0,57.9,96,29.83,2.0,Calm,Calm,-,0.13,Rain,Heavy Rain,0,2012-10-11 16:56:00
10:03 AM,59.0,57.2,94,29.93,2.5,Calm,Calm,-,0.01,Rain,Light Rain,0,2012-10-11 17:03:00
10:56 AM,59.9,59.0,97,29.82,7.0,Calm,Calm,-,0.05,,Overcast,0,2012-10-11 17:56:00
11:03 AM,60.8,59.0,94,29.92,10.0,Calm,Calm,-,N/A,,Overcast,0,2012-10-11 18:03:00
11:18 AM,60.8,60.8,100,29.93,10.0,NNE,5.8,-,N/A,,Overcast,30,2012-10-11 18:18:00
11:29 AM,60.8,60.8,100,29.92,10.0,North,6.9,-,N/A,,Overcast,10,2012-10-11 18:29:00
11:36 AM,60.8,60.8,100,29.92,10.0,NE,4.6,-,N/A,,Overcast,50,2012-10-11 18:36:00
11:56 AM,61.9,59.9,93,29.81,10.0,Calm,Calm,-,N/A,,Mostly Cloudy,0,2012-10-11 18:56:00
12:56 PM,63.9,56.8,78,29.78,10.0,SE,9.2,-,N/A,,Overcast,130,2012-10-11 19:56:00
2:56 PM,65.8,54.9,68,29.75,10.0,SE,11.5,-,N/A,,Partly Cloudy,130,2012-10-11 21:56:00
4:56 PM,63.9,54.9,72,29.74,10.0,ENE,9.2,-,N/A,,Mostly Cloudy,60,2012-10-11 23:56:00
6:56 PM,59.9,55.9,87,29.76,10.0,ENE,10.4,-,N/A,,Clear,60,2012-10-12 01:56:00
7:56 PM,59.9,54.9,83,29.75,10.0,ENE,13.8,-,N/A,Thunderstorm,Partly Cloudy,60,2012-10-12 02:56:00
8:11 PM,57.2,51.8,82,29.89,9.0,SW,16.1,21.9,0.04,Rain-Thunderstorm,Heavy Thunderstorms and Rain,230,2012-10-12 03:11:00
8:56 PM,54.9,47.8,77,29.80,10.0,South,6.9,-,0.14,Thunderstorm,Mostly Cloudy,190,2012-10-12 03:56:00
9:07 PM,55.4,48.2,77,29.89,10.0,South,8.1,-,N/A,,Partly Cloudy,190,2012-10-12 04:07:00
9:56 PM,54.0,50.9,89,29.82,10.0,Calm,Calm,-,N/A,,Mostly Cloudy,0,2012-10-12 04:56:00
10:26 PM,55.4,51.8,88,29.94,10.0,WSW,9.2,-,0.01,Rain,Heavy Rain,250,2012-10-12 05:26:00
10:35 PM,53.6,51.8,94,29.95,10.0,West,8.1,-,0.03,Rain-Thunderstorm,Heavy Thunderstorms and Rain,270,2012-10-12 05:35:00
10:47 PM,53.6,50.0,88,29.93,10.0,NW,11.5,-,0.06,Rain-Thunderstorm,Heavy Thunderstorms and Rain,320,2012-10-12 05:47:00
10:56 PM,52.9,48.9,86,29.84,10.0,NNW,10.4,-,0.07,Rain-Thunderstorm,Heavy Thunderstorms and Rain,330,2012-10-12 05:56:00
11:19 PM,51.8,46.4,82,29.92,10.0,Calm,Calm,-,0.00,,Partly Cloudy,0,2012-10-12 06:19:00
11:56 PM,52.0,50.0,93,29.83,10.0,South,4.6,-,0.00,,Clear,170,2012-10-12 06:56:00